Wind_Speed
9 8 8 8 7 7 7 7 7 7 7 8 8 7 6 6 6 7 7 8 8 8 8 8 8 8 9 9 10 10 10 10 10 11 12 12 12 12 12 12 12 11 11
9 8 8 8 8 8 8 8 8 8 8 9 9 9 8 7 7 8 8 8 8 8 9 9 9 10 10 11 11 11 12 12 12 12 13 13 13 13 13 12 12 12 11
9 9 8 8 9 9 8 8 8 8 9 10 10 10 10 9 8 9 9 9 9 10 10 10 11 12 11 12 12 13 13 14 14 14 14 14 14 14 14 13 13 13 12
10 11 10 9 10 10 9 9 9 10 10 11 11 12 12 11 10 10 10 10 11 11 12 12 12 13 13 13 14 14 15 15 15 16 16 16 16 16 15 15 14 13 13
11 11 11 11 10 10 10 10 11 11 11 12 12 13 13 12 12 12 12 12 12 12 13 13 14 14 15 15 16 16 16 17 17 18 18 18 18 17 17 16 16 15 15
12 12 12 12 11 11 11 11 12 12 12 12 13 14 14 14 14 14 14 14 14 14 14 14 15 15 16 17 17 17 18 18 18 19 19 20 19 19 19 18 18 18 18
14 13 12 12 12 12 12 12 13 13 13 14 14 15 15 15 15 16 16 15 15 15 15 16 17 17 18 18 18 19 19 20 20 20 21 21 21 21 21 20 20 19 19
15 14 14 13 13 13 13 13 14 14 15 15 15 16 17 17 17 18 17 17 17 17 17 18 18 19 20 20 21 21 21 21 21 22 22 22 22 22 22 22 21 21 21
16 16 15 15 15 15 15 15 15 16 16 17 16 17 18 18 18 18 18 19 19 19 19 19 20 20 21 22 22 22 23 23 23 22 23 23 23 23 23 23 23 23 23
17 17 16 16 16 17 17 17 17 18 18 18 18 18 19 20 19 20 20 21 22 21 21 21 22 22 22 23 23 23 23 24 24 24 24 23 24 23 24 24 25 25 24
18 17 17 17 18 18 19 19 20 19 19 19 19 20 20 21 20 21 22 23 23 22 22 23 24 24 24 24 24 24 24 24 24 25 24 24 25 26 26 25 26 26 25
19 19 20 20 20 20 21 21 21 21 21 21 21 22 22 22 23 23 23 24 24 24 24 24 25 25 26 26 26 26 25 25 25 25 25 26 27 28 27 27 27 26 26
21 21 21 21 21 21 22 22 22 23 23 23 22 23 23 24 24 25 24 25 26 26 26 26 26 27 27 27 27 28 28 27 27 27 27 28 29 29 28 28 28 27 27
22 23 22 22 22 22 23 24 24 24 24 24 24 24 25 26 26 26 27 27 27 28 28 28 28 28 28 28 29 29 28 28 29 30 30 31 31 30 30 30 29 28 27
24 24 24 24 24 24 25 25 26 26 26 26 26 26 27 27 27 27 27 28 29 29 29 29 29 30 30 31 31 31 31 30 30 31 31 32 32 31 31 30 29 28 27
25 25 25 26 26 26 27 27 27 27 27 27 27 28 28 28 28 28 29 30 30 30 30 31 31 31 31 32 31 31 31 32 32 32 33 32 32 31 30 29 28 28 27
26 26 26 27 27 27 27 28 28 28 28 28 28 29 29 30 30 30 30 30 30 30 31 32 32 32 32 32 32 33 33 33 34 34 33 32 31 30 30 30 29 29 29
28 28 29 29 29 28 28 29 30 29 29 29 29 30 31 31 31 31 31 31 32 32 32 32 32 31 32 33 33 34 34 34 34 33 33 32 32 31 31 31 30 30 30
29 30 29 30 29 29 29 30 30 30 30 30 30 30 31 31 31 31 32 32 32 31 32 32 32 32 32 33 34 34 35 35 35 34 33 33 32 31 31 31 31 31 31
31 30 30 29 29 29 30 30 30 30 30 31 31 30 31 31 30 30 30 31 31 31 31 32 32 32 32 33 34 34 35 34 34 34 34 33 31 31 32 31 31 31 31
31 30 30 30 30 30 31 30 30 31 31 31 30 30 30 29 29 30 30 30 31 31 31 32 32 32 32 33 34 35 34 34 33 33 32 32 31 31 31 31 31 31 31
29 30 30 30 31 31 31 30 30 31 31 31 30 29 29 30 30 30 30 30 31 32 32 33 33 32 33 34 34 33 34 33 33 32 31 31 31 31 31 30 30 30 30
28 29 30 30 31 31 31 31 31 31 31 30 29 29 30 30 29 30 30 31 32 33 33 32 32 32 32 32 32 32 32 32 32 31 30 31 30 30 30 30 30 30 30
29 29 30 31 30 30 31 31 31 31 31 30 30 30 30 30 30 31 31 32 33 33 32 32 32 32 32 32 32 32 31 31 31 30 30 30 29 29 30 30 31 31 31
29 30 30 30 30 31 31 31 31 31 30 30 31 31 31 31 31 31 32 32 32 32 31 31 31 31 31 32 31 31 30 30 30 30 30 30 29 29 30 30 30 30 30
30 30 30 30 30 30 30 30 30 30 30 30 30 31 31 31 32 32 32 32 31 31 31 31 31 31 31 31 31 31 31 31 30 30 30 30 31 30 30 30 30 29 29
Wind_Direction
354 353 352 351 350 350 349 345 344 341 341 340 340 337 331 328 331 333 334 332 332 330 333 333 332 330 327 324 320 318 319 322 325 323 321 320 318 319 315 315 316 313 310
349 350 345 345 346 346 346 342 339 338 333 333 338 338 329 324 326 327 326 328 327 323 323 325 328 325 321 318 317 315 315 318 320 319 320 320 318 316 317 314 315 313 311
336 333 331 335 337 337 335 337 334 332 330 330 336 337 330 319 318 319 319 320 320 314 313 316 318 320 315 314 314 312 312 314 315 316 316 318 316 313 314 313 313 311 308
332 329 326 324 327 328 328 329 327 327 325 323 325 328 329 324 317 314 312 309 310 311 310 307 312 313 310 309 310 311 311 312 312 312 313 313 314 313 311 309 310 308 305
323 324 322 320 322 324 323 320 321 322 320 319 318 319 320 317 314 312 310 308 306 307 307 305 305 307 307 306 307 308 308 309 308 309 310 309 311 311 310 310 309 306 302
318 317 318 318 318 319 320 320 319 318 316 315 314 313 312 311 308 306 305 306 306 305 307 306 303 304 304 304 305 307 307 306 307 308 307 306 306 307 307 307 308 306 303
316 314 316 319 317 314 315 316 314 314 313 310 308 307 307 307 305 304 302 301 302 301 302 305 305 305 303 303 304 305 306 306 304 304 304 303 303 304 304 303 303 303 302
312 312 312 314 315 314 312 314 312 310 310 308 305 304 305 303 301 301 302 301 300 299 300 303 304 303 302 302 301 302 304 304 303 302 301 300 300 301 302 302 302 301 300
307 309 308 309 308 308 308 309 311 306 306 305 303 302 301 301 301 301 302 303 301 298 299 300 303 304 302 301 301 302 303 303 303 302 301 300 302 300 301 302 302 302 300
303 305 305 305 304 304 304 305 304 305 305 304 301 299 299 299 300 301 300 302 301 297 296 297 300 302 302 302 301 301 302 303 303 302 301 299 300 301 301 301 301 301 298
300 300 300 302 302 301 301 302 302 302 301 300 300 299 298 297 299 299 299 300 299 298 297 297 297 299 301 302 302 301 302 302 302 301 300 298 298 299 299 300 299 298 297
295 298 299 301 301 301 302 302 302 301 301 300 300 300 300 298 297 297 297 298 298 297 296 294 295 296 297 300 301 301 301 300 300 299 299 298 298 297 297 297 298 297 296
293 295 296 298 299 299 299 301 301 300 300 300 300 300 300 298 298 297 297 296 295 295 295 292 293 295 295 298 300 299 298 298 299 298 298 299 298 298 297 297 296 295 294
292 294 295 296 296 296 297 299 300 300 299 298 298 298 298 298 298 298 297 295 294 294 293 292 292 292 293 295 296 296 298 297 297 297 297 298 298 298 296 296 295 294 294
289 292 293 295 294 293 294 296 297 297 296 296 296 296 297 297 298 299 298 296 294 293 292 291 291 291 292 294 295 295 295 296 296 296 296 296 295 295 296 294 293 293 293
287 289 290 293 293 292 292 293 294 293 293 293 293 294 296 296 297 296 297 296 295 294 294 293 292 292 294 294 294 295 294 295 297 296 295 294 292 293 293 293 291 290 291
285 287 290 292 292 291 292 292 293 293 294 293 293 294 296 296 296 297 298 297 296 295 294 294 295 293 293 293 293 294 294 295 296 295 295 293 292 291 291 291 291 290 290
285 287 288 289 289 290 292 293 293 294 294 293 292 294 294 295 295 295 296 296 296 295 295 295 295 294 293 293 294 295 295 295 295 293 293 292 291 291 290 290 291 291 291
286 287 289 289 289 290 292 292 292 293 293 293 293 292 293 293 293 294 295 296 297 297 296 296 296 295 294 295 296 295 296 294 293 292 291 290 290 290 290 289 290 290 290
286 287 288 289 290 291 291 292 292 294 295 295 294 293 294 292 292 294 295 296 296 297 297 297 296 296 295 296 296 296 296 295 293 292 291 290 290 289 289 289 289 289 289
286 286 287 289 289 291 292 293 294 295 296 297 296 296 296 295 294 294 295 296 297 298 298 298 297 296 296 297 297 297 296 296 295 293 291 290 290 290 290 291 290 289 288
285 287 287 289 290 291 291 292 294 295 295 295 295 296 296 295 294 293 293 294 296 298 298 297 297 298 298 298 297 298 299 298 297 294 291 291 291 290 290 290 291 290 288
285 287 288 290 291 291 291 292 294 294 295 295 295 295 295 295 293 294 294 295 297 298 298 298 298 299 298 298 298 299 300 300 298 296 294 292 292 291 290 290 290 290 289
287 288 289 291 291 291 292 292 293 294 295 294 294 295 295 295 295 296 296 296 297 298 298 298 298 298 298 298 299 298 298 298 299 297 294 294 293 292 291 290 290 289 289
286 288 290 291 292 293 293 292 293 293 293 293 294 296 296 297 297 297 298 298 298 299 300 300 300 299 298 298 299 299 299 299 298 297 296 294 293 293 291 290 290 289 289
287 289 291 292 292 292 293 293 293 292 293 294 296 296 296 296 296 297 298 299 299 299 300 300 300 300 300 300 300 300 301 300 299 298 298 296 294 293 292 291 290 290 290
Height
5913 5912 5911 5910 5909 5909 5908 5907 5906 5905 5904 5904 5903 5902 5901 5900 5900 5900 5899 5898 5897 5897 5896 5896 5895 5894 5893 5892 5891 5889 5888 5887 5886 5885 5883 5882 5881 5879 5878 5877 5876 5875 5873
5913 5912 5911 5910 5909 5908 5908 5907 5906 5905 5904 5903 5902 5901 5901 5900 5900 5899 5898 5898 5897 5896 5895 5895 5894 5893 5892 5891 5889 5888 5887 5885 5884 5883 5881 5880 5879 5878 5876 5875 5874 5872 5871
5913 5912 5910 5910 5909 5908 5907 5906 5905 5904 5903 5903 5902 5901 5900 5899 5899 5898 5897 5897 5896 5895 5894 5893 5892 5891 5890 5889 5887 5886 5884 5883 5882 5880 5879 5878 5876 5875 5874 5872 5871 5869 5868
5913 5911 5909 5908 5908 5907 5906 5905 5905 5904 5903 5902 5901 5900 5899 5898 5897 5897 5896 5895 5894 5893 5892 5891 5890 5889 5888 5886 5885 5884 5882 5880 5879 5878 5876 5875 5873 5872 5871 5870 5868 5866 5865
5913 5911 5909 5908 5907 5906 5905 5904 5904 5903 5901 5900 5899 5899 5898 5896 5896 5895 5894 5893 5892 5891 5890 5889 5887 5886 5885 5883 5882 5881 5879 5877 5876 5875 5873 5871 5870 5868 5868 5866 5865 5863 5862
5911 5910 5909 5907 5906 5905 5904 5903 5902 5901 5900 5899 5898 5897 5895 5894 5893 5892 5891 5890 5889 5888 5887 5886 5884 5883 5882 5880 5879 5877 5876 5874 5872 5871 5869 5868 5866 5865 5863 5862 5861 5859 5858
5910 5909 5908 5906 5905 5904 5903 5902 5901 5900 5898 5897 5895 5894 5893 5892 5891 5889 5888 5887 5886 5885 5884 5882 5881 5880 5878 5877 5875 5873 5872 5870 5869 5867 5865 5864 5862 5861 5859 5858 5856 5855 5853
5908 5907 5906 5905 5904 5903 5901 5900 5899 5897 5896 5894 5893 5892 5890 5889 5888 5886 5885 5884 5882 5881 5880 5879 5877 5876 5874 5872 5870 5869 5867 5866 5864 5862 5861 5859 5857 5856 5855 5853 5851 5850 5849
5906 5905 5904 5902 5901 5900 5899 5898 5896 5894 5893 5891 5890 5888 5887 5886 5884 5883 5881 5880 5879 5877 5876 5875 5873 5871 5870 5868 5866 5864 5862 5861 5859 5857 5856 5854 5852 5850 5849 5848 5846 5844 5843
5904 5902 5901 5900 5898 5897 5896 5894 5893 5891 5889 5888 5886 5885 5883 5882 5881 5879 5877 5876 5874 5873 5871 5869 5868 5866 5865 5863 5861 5859 5857 5856 5854 5852 5850 5849 5847 5845 5844 5842 5840 5838 5836
5901 5899 5898 5897 5895 5894 5892 5891 5889 5888 5886 5884 5883 5881 5879 5877 5876 5874 5873 5871 5869 5867 5866 5864 5863 5861 5860 5858 5856 5854 5852 5850 5848 5846 5845 5843 5841 5839 5837 5835 5834 5831 5830
5898 5896 5894 5893 5892 5890 5888 5886 5884 5883 5881 5880 5878 5876 5874 5873 5871 5869 5868 5866 5864 5862 5860 5859 5857 5856 5854 5852 5850 5848 5846 5844 5842 5841 5839 5837 5835 5833 5831 5829 5827 5825 5823
5894 5892 5890 5889 5887 5886 5884 5882 5880 5878 5876 5875 5873 5871 5869 5867 5865 5864 5862 5860 5858 5856 5854 5853 5851 5849 5847 5846 5844 5842 5840 5838 5836 5834 5832 5830 5828 5826 5823 5821 5820 5818 5816
5889 5888 5886 5884 5883 5881 5879 5877 5875 5873 5872 5870 5868 5866 5864 5862 5860 5858 5856 5854 5852 5850 5848 5846 5844 5842 5840 5839 5837 5835 5833 5831 5829 5827 5825 5823 5821 5818 5816 5814 5812 5810 5809
5884 5883 5881 5879 5877 5876 5874 5872 5870 5869 5866 5864 5862 5860 5858 5856 5854 5851 5849 5847 5845 5843 5841 5839 5837 5835 5833 5831 5829 5827 5826 5824 5821 5819 5817 5815 5812 5810 5808 5806 5805 5803 5802
5878 5877 5875 5874 5872 5870 5868 5866 5865 5863 5861 5859 5856 5854 5852 5850 5847 5845 5842 5840 5838 5835 5833 5831 5829 5827 5826 5823 5822 5820 5818 5815 5813 5811 5809 5807 5804 5802 5800 5798 5797 5795 5794
5872 5871 5869 5868 5866 5864 5862 5860 5858 5856 5854 5852 5850 5848 5846 5843 5841 5838 5836 5833 5830 5828 5826 5824 5822 5820 5818 5816 5813 5811 5809 5807 5805 5802 5800 5798 5796 5794 5792 5790 5789 5787 5785
5866 5865 5863 5861 5859 5857 5855 5853 5851 5849 5847 5845 5843 5841 5839 5836 5834 5831 5828 5826 5823 5820 5818 5816 5813 5812 5809 5807 5805 5803 5800 5798 5796 5794 5791 5789 5787 5785 5784 5782 5780 5778 5777
5859 5857 5856 5854 5852 5850 5848 5846 5844 5842 5840 5838 5836 5834 5831 5829 5827 5824 5821 5818 5816 5813 5811 5808 5806 5804 5802 5799 5796 5794 5791 5789 5787 5785 5783 5780 5778 5777 5775 5773 5772 5770 5768
5852 5850 5849 5847 5844 5842 5841 5839 5837 5835 5833 5831 5828 5826 5824 5821 5819 5816 5813 5811 5808 5805 5802 5800 5798 5796 5793 5791 5788 5785 5783 5780 5778 5776 5774 5771 5769 5768 5766 5764 5762 5761 5759
5844 5843 5842 5840 5838 5836 5834 5831 5829 5827 5825 5823 5820 5818 5815 5813 5811 5808 5806 5803 5800 5797 5795 5792 5790 5788 5785 5782 5779 5776 5773 5771 5769 5766 5764 5762 5760 5758 5756 5755 5753 5751 5749
5837 5835 5834 5832 5830 5828 5826 5824 5822 5820 5817 5815 5812 5810 5807 5805 5802 5800 5798 5795 5792 5790 5787 5784 5782 5779 5777 5774 5771 5768 5765 5762 5759 5757 5755 5753 5751 5749 5747 5745 5743 5741 5739
5829 5828 5826 5824 5822 5820 5818 5816 5814 5811 5809 5807 5804 5802 5800 5797 5794 5792 5789 5787 5785 5782 5779 5776 5773 5771 5768 5765 5762 5759 5756 5753 5751 5748 5746 5744 5742 5740 5738 5736 5734 5732 5730
5822 5820 5818 5817 5814 5812 5810 5808 5806 5803 5801 5799 5796 5794 5792 5789 5786 5783 5781 5779 5776 5773 5770 5767 5765 5762 5759 5757 5754 5751 5748 5745 5742 5740 5738 5735 5733 5731 5729 5727 5725 5723 5721
5815 5812 5810 5809 5806 5804 5802 5800 5798 5795 5793 5791 5789 5786 5784 5781 5778 5775 5773 5770 5767 5764 5762 5759 5756 5753 5751 5748 5745 5742 5739 5737 5734 5731 5729 5726 5724 5722 5720 5718 5716 5714 5711
5807 5805 5803 5801 5799 5796 5794 5792 5789 5787 5785 5782 5780 5778 5775 5772 5770 5767 5764 5761 5759 5756 5753 5750 5747 5745 5742 5739 5736 5733 5730 5728 5725 5723 5720 5718 5715 5713 5711 5709 5707 5704 5702